Waarnemingen

Advertentie
Mijn weer
Vidsel, Zweden (2154): temperatuur & dauwpunt: 15.10.2017 14:00:00 - 21.10.2017 14:00:00 (CEST)Vidsel, Zweden (2154): windsnelheid & windstoten: 15.10.2017 14:00:00 - 21.10.2017 14:00:00 (CEST)Vidsel, Zweden (2154): windrichting: 15.10.2017 14:00:00 - 21.10.2017 14:00:00 (CEST)Vidsel, Zweden (2154): luchtdruk: 15.10.2017 14:00:00 - 21.10.2017 14:00:00 (CEST)Vidsel, Zweden (2154): zicht: 15.10.2017 14:00:00 - 21.10.2017 14:00:00 (CEST)Vidsel, Zweden (2154): neerslag: 15.10.2017 14:00:00 - 21.10.2017 14:00:00 (CEST)
Datum & Tijd tt [°C] td [°C] ff [km/u] ff [kn] fx [km/u] fx [kn] dd ppp [hPa] vv [km] rr [mm]
21.10.2017 14:00:00 1,0 -2,0 15 8 - - NW - 10 -
21.10.2017 13:00:00 0,8 -2,4 15 8 25 14 NW 1024,0 10 0,0
21.10.2017 12:00:00 0,4 -2,6 16 9 22 12 WNW 1024,3 10 0,0
21.10.2017 11:00:00 -0,4 -3,1 13 7 18 10 NW 1024,8 10 0,0
21.10.2017 10:00:00 -1,3 -3,7 8 4 22 12 W 1025,1 10 0,0
21.10.2017 09:00:00 -1,9 -3,9 16 9 22 12 W 1025,2 10 0,0
21.10.2017 08:00:00 -2,4 -4,1 8 4 18 10 W 1025,3 10 0,0
21.10.2017 07:00:00 -2,7 -4,4 13 7 22 12 W 1025,4 10 0,0
21.10.2017 06:00:00 -2,9 -4,6 15 8 22 12 W 1025,8 10 0,0
21.10.2017 05:00:00 -2,8 -4,5 9 5 22 12 W 1025,9 10 0,0
21.10.2017 04:00:00 -2,5 -4,2 8 4 18 10 WZW 1026,1 10 0,0
21.10.2017 03:00:00 -2,6 -4,0 8 4 14 8 W 1026,5 10 0,0
21.10.2017 02:00:00 -2,2 -3,9 9 5 14 8 W 1026,7 10 0,0
21.10.2017 01:00:00 -1,8 -3,5 8 4 18 10 W 1026,8 10 0,0
21.10.2017 00:00:00 -2,0 -3,9 9 5 18 10 W 1027,2 10 0,0
20.10.2017 23:00:00 -2,0 -3,9 9 5 14 8 W 1027,4 10 0,0
20.10.2017 22:00:00 -1,3 -3,5 5 3 11 6 WZW 1027,5 10 0,0
20.10.2017 21:00:00 -1,5 -3,5 8 4 7 4 W 1027,6 10 0,0
20.10.2017 20:00:00 -1,1 -3,5 4 2 7 4 - 1027,7 10 0,0
20.10.2017 19:00:00 -0,8 -3,3 2 1 7 4 - 1027,5 10 0,0
20.10.2017 18:00:00 -0,5 -3,5 2 1 11 6 - 1027,4 10 0,0
20.10.2017 17:00:00 -0,2 -3,2 4 2 11 6 - 1027,2 10 0,0
20.10.2017 16:00:00 0,2 -3,0 4 2 11 6 - 1027,1 10 0,0
20.10.2017 15:00:00 0,4 -2,8 9 5 14 8 N 1027,0 10 0,0
20.10.2017 14:00:00 0,7 -2,3 5 3 14 8 NO 1026,9 10 0,0
20.10.2017 13:00:00 0,6 -2,5 8 4 14 8 NO 1026,8 10 0,0
20.10.2017 12:00:00 0,3 -2,2 8 4 14 8 O 1026,5 10 0,0
20.10.2017 11:00:00 -0,2 -2,3 8 4 11 6 N 1026,3 10 0,0
20.10.2017 10:00:00 -0,2 -2,1 5 3 14 8 NNW 1025,5 10 0,0
20.10.2017 09:00:00 -0,2 -1,9 8 4 18 10 NNW 1025,0 10 0,0
20.10.2017 08:00:00 -0,6 -2,0 8 4 11 6 N 1024,3 10 0,0
20.10.2017 07:00:00 -0,3 -1,9 5 3 22 12 - 1023,9 10 0,0
20.10.2017 06:00:00 0,2 -1,2 11 6 22 12 NNO 1023,2 10 0,0
20.10.2017 05:00:00 -4,0 -5,0 8 4 14 8 NW 1022,8 10 0,0
20.10.2017 04:00:00 -4,0 -4,5 2 1 7 4 - 1022,4 10 0,0
20.10.2017 03:00:00 -3,6 -4,0 2 1 4 2 - 1021,9 10 0,0
20.10.2017 02:00:00 -3,6 -4,1 2 1 4 2 - 1021,5 10 0,0
20.10.2017 01:00:00 -2,6 -3,3 5 3 7 4 W 1020,9 10 0,0
20.10.2017 00:00:00 -1,9 -2,5 0 0 7 4 N 1020,8 10 0,0
19.10.2017 23:00:00 -2,1 -2,9 5 3 7 4 W 1020,6 10 0,0
19.10.2017 22:00:00 -2,0 -2,7 0 0 7 4 N 1020,2 10 0,0
19.10.2017 21:00:00 -3,1 -3,8 2 1 7 4 WNW 1020,2 10 0,0
19.10.2017 20:00:00 -3,6 -4,4 4 2 7 4 W 1019,8 10 0,0
19.10.2017 19:00:00 -2,7 -3,8 0 0 4 2 N 1019,4 10 0,0
19.10.2017 18:00:00 -1,8 -2,9 0 0 4 2 N 1019,1 10 0,0
19.10.2017 17:00:00 1,0 -1,7 2 1 7 4 ZO 1018,9 10 0,0
19.10.2017 16:00:00 3,1 -1,5 2 1 14 8 - 1018,7 10 0,0
19.10.2017 15:00:00 4,4 -1,6 11 6 18 10 WNW 1018,5 10 0,0
19.10.2017 14:00:00 5,5 -1,2 9 5 18 10 WNW 1018,0 10 0,0
19.10.2017 13:00:00 5,4 -0,7 8 4 18 10 WNW 1017,6 10 0,0
19.10.2017 12:00:00 4,5 -0,1 15 8 18 10 WNW 1017,5 10 0,0
19.10.2017 11:00:00 2,4 0,9 5 3 7 4 WNW 1017,5 10 0,0
19.10.2017 10:00:00 0,6 -0,3 5 3 7 4 WZW 1017,2 10 0,0
19.10.2017 09:00:00 -0,8 -1,4 2 1 4 2 - 1016,4 10 0,0
19.10.2017 08:00:00 -1,5 -1,9 2 1 4 2 - 1015,9 10 0,0
19.10.2017 07:00:00 -2,0 -2,3 2 1 4 2 OZO 1015,5 10 0,0
19.10.2017 06:00:00 -2,2 -2,5 0 0 7 4 N 1014,9 10 0,0
19.10.2017 05:00:00 -1,8 -2,1 0 0 4 2 N 1014,5 10 0,0
19.10.2017 04:00:00 -1,8 -1,9 4 2 7 4 - 1013,9 10 0,0
19.10.2017 03:00:00 -0,4 -0,8 4 2 7 4 WNW 1013,2 10 0,0
19.10.2017 02:00:00 -1,0 -1,6 2 1 7 4 - 1012,6 10 0,0
19.10.2017 01:00:00 0,2 -0,7 5 3 7 4 NNW 1012,1 10 0,0
19.10.2017 00:00:00 -0,4 -0,5 2 1 4 2 - 1011,6 10 0,0
18.10.2017 23:00:00 -0,4 -1,1 4 2 7 4 WZW 1011,1 10 0,0
18.10.2017 22:00:00 1,9 0,6 9 5 18 10 NW 1010,3 10 0,0
18.10.2017 21:00:00 2,9 1,1 11 6 18 10 NW 1009,3 10 0,0
18.10.2017 20:00:00 2,2 1,2 5 3 7 4 NW 1008,3 10 0,0
18.10.2017 19:00:00 1,3 0,6 5 3 7 4 NW 1007,5 10 0,0
18.10.2017 18:00:00 1,7 1,0 2 1 4 2 ZW 1006,8 10 0,0
18.10.2017 17:00:00 3,1 1,8 2 1 7 4 - 1006,2 10 0,0
18.10.2017 16:00:00 3,9 2,3 5 3 11 6 WNW 1005,7 10 0,0
18.10.2017 15:00:00 4,1 2,5 8 4 14 8 WNW 1004,7 10 0,0
18.10.2017 14:00:00 3,9 2,6 4 2 14 8 - 1004,0 10 0,0
18.10.2017 13:00:00 2,8 1,8 8 4 11 6 NW 1003,6 10 0,0
18.10.2017 12:00:00 1,7 1,0 5 3 7 4 NW 1002,9 10 0,0
18.10.2017 11:00:00 0,0 -0,4 5 3 7 4 WNW 1002,0 10 0,0
18.10.2017 10:00:00 -1,9 -2,3 8 4 7 4 WNW 1001,2 10 0,0
18.10.2017 09:00:00 -3,9 -4,4 2 1 4 2 WNW 1000,4 10 0,0
18.10.2017 08:00:00 -4,6 -5,1 0 0 4 2 N 999,9 10 0,0
18.10.2017 07:00:00 -4,2 -4,7 0 0 4 2 N 999,6 10 0,0
18.10.2017 06:00:00 -4,2 -4,7 0 0 7 4 N 999,3 10 0,0
18.10.2017 05:00:00 -4,9 -5,6 2 1 7 4 - 999,1 10 0,0
18.10.2017 04:00:00 -4,2 -4,6 4 2 7 4 - 999,0 10 0,0
18.10.2017 03:00:00 -4,2 -4,7 0 0 7 4 N 999,1 10 0,0
18.10.2017 02:00:00 -3,1 -3,5 0 0 4 2 N 999,0 10 0,0
18.10.2017 01:00:00 -3,7 -4,2 0 0 7 4 N 999,0 10 0,0
18.10.2017 00:00:00 -3,6 -4,1 2 1 4 2 - 999,3 10 0,0
17.10.2017 23:00:00 -3,2 -3,7 2 1 7 4 - 999,4 10 0,0
17.10.2017 22:00:00 -3,1 -3,5 4 2 7 4 - 999,6 10 0,0
17.10.2017 21:00:00 -2,6 -3,1 4 2 4 2 - 999,7 10 0,0
17.10.2017 20:00:00 -1,6 -2,4 2 1 4 2 - 999,8 10 0,0
17.10.2017 19:00:00 -0,6 -1,4 2 1 7 4 - 999,9 10 0,0
17.10.2017 18:00:00 2,6 0,5 2 1 11 6 - 1000,0 10 0,0
17.10.2017 17:00:00 5,7 1,2 5 3 14 8 W 1000,1 10 0,0
17.10.2017 16:00:00 7,0 1,5 11 6 22 12 NW 1000,6 10 0,0
17.10.2017 15:00:00 7,9 1,9 13 7 29 16 WNW 1001,2 10 0,0
17.10.2017 14:00:00 7,8 1,8 16 9 25 14 WNW 1001,4 10 0,0
17.10.2017 13:00:00 7,7 2,0 13 7 25 14 W 1002,0 10 0,0
17.10.2017 12:00:00 7,4 1,9 11 6 25 14 W 1002,4 10 0,0
17.10.2017 11:00:00 6,9 1,6 11 6 22 12 W 1002,8 10 0,0
17.10.2017 10:00:00 5,8 1,3 9 5 22 12 W 1002,8 10 0,0
17.10.2017 09:00:00 5,2 0,9 11 6 32 18 W 1002,7 10 0,0
17.10.2017 08:00:00 5,2 0,8 16 9 29 16 W 1002,7 10 0,0
17.10.2017 07:00:00 4,0 0,2 8 4 18 10 WZW 1003,0 10 0,0
17.10.2017 06:00:00 4,5 0,5 13 7 22 12 W 1002,9 10 0,0
17.10.2017 05:00:00 5,2 0,6 16 9 29 16 W 1002,5 10 0,0
17.10.2017 04:00:00 5,5 0,7 18 10 32 18 W 1002,5 10 0,0
17.10.2017 03:00:00 5,6 0,8 22 12 32 18 W 1002,0 10 0,0
17.10.2017 02:00:00 5,8 0,9 21 11 36 19 W 1001,5 10 0,0
17.10.2017 01:00:00 5,7 0,7 22 12 40 21 W 1000,8 10 0,0
17.10.2017 00:00:00 5,9 0,4 26 14 43 23 W 1000,3 10 0,0
16.10.2017 23:00:00 5,9 0,2 29 16 47 25 W 999,5 10 0,0
16.10.2017 22:00:00 5,9 0,2 28 15 54 29 W 999,1 10 0,0
16.10.2017 21:00:00 6,0 0,5 29 16 54 29 W 998,2 10 0,0
16.10.2017 20:00:00 6,4 0,3 31 17 54 29 W 998,1 10 0,0
16.10.2017 19:00:00 6,6 0,5 34 18 50 27 W 997,7 10 0,0
16.10.2017 18:00:00 6,9 0,6 26 14 50 27 W 997,3 10 0,0
16.10.2017 17:00:00 7,6 0,8 34 18 50 27 WNW 996,5 10 0,0
16.10.2017 16:00:00 8,4 1,1 35 19 65 35 WNW 995,6 10 0,0
16.10.2017 15:00:00 9,0 1,4 39 21 76 41 WNW 994,3 10 0,0
16.10.2017 14:00:00 9,3 1,7 48 26 72 39 WNW 992,8 10 0,0
16.10.2017 13:00:00 9,4 2,7 39 21 72 39 WNW 991,7 10 0,0
16.10.2017 12:00:00 9,3 3,3 44 24 68 37 W 990,3 10 0,0
16.10.2017 11:00:00 8,7 3,9 28 15 54 29 W 989,7 10 0,0
16.10.2017 10:00:00 8,2 6,7 13 7 36 19 ZW 989,7 10 0,0
16.10.2017 09:00:00 6,7 6,1 9 5 25 14 ZZO 990,8 10 0,0
16.10.2017 08:00:00 6,2 5,8 15 8 29 16 ZO 992,1 9 0,0
16.10.2017 07:00:00 5,4 5,1 18 10 36 19 ZO 993,8 10 0,0
16.10.2017 06:00:00 4,7 4,6 18 10 32 18 ZO 995,7 10 1,0
16.10.2017 05:00:00 3,7 3,6 15 8 22 12 OZO 998,2 4,7 0,4
16.10.2017 04:00:00 3,2 3,1 11 6 18 10 OZO 1000,0 10 0,3
16.10.2017 03:00:00 2,5 2,4 13 7 18 10 OZO 1001,5 10 0,7
16.10.2017 02:00:00 2,7 2,6 9 5 14 8 OZO 1003,2 10 0,2
16.10.2017 01:00:00 1,3 1,2 2 1 7 4 NNO 1004,6 0,3 0,0
16.10.2017 00:00:00 2,2 2,1 5 3 7 4 ZZO 1005,7 0,3 0,0
15.10.2017 23:00:00 1,1 1,0 4 2 7 4 - 1006,3 0,1 0,0
15.10.2017 22:00:00 1,3 1,2 4 2 7 4 ZO 1007,2 - 0,0
15.10.2017 21:00:00 0,3 0,2 4 2 7 4 N 1008,4 0,1 0,0
15.10.2017 20:00:00 0,6 0,5 4 2 7 4 - 1008,6 0,1 0,0
15.10.2017 19:00:00 1,0 0,9 4 2 7 4 O 1009,0 0,1 0,0
15.10.2017 18:00:00 1,2 1,1 5 3 7 4 ZO 1008,9 0,4 0,0
15.10.2017 17:00:00 2,5 2,4 2 1 4 2 ZO 1009,2 0,1 0,0
15.10.2017 16:00:00 3,2 3,1 4 2 7 4 ZO 1009,2 0,3 0,0
15.10.2017 15:00:00 3,6 3,5 5 3 11 6 ZO 1008,9 0,4 0,0
15.10.2017 14:00:00 4,4 4,0 11 6 11 6 OZO 1008,6 10 0,0

tt = temperatuur
td = dauwpunt
ff = windsnelheid
fx = windstoten
dd = windrichting
ppp = luchtdruk
vv = zicht
rr = neerslag

Weerstations in de omgeving